Location: RyutenAO
(34.8939°N, 134.0022°E)
Time: 01:47:21
(UTC+09:00)

Hubble Space Telescope - Visible Passes

Search period start: 04 December 2022 00:00
Search period end: 14 December 2022 00:00
Orbit: 530 x 534 km, 28.5° (Epoch: 02 December)

Date Brightness Start Highest point End Pass type
(mag) Time Alt. Az. Time Alt. Az. Time Alt. Az.
07 Dec 3.6 04:44:48 10° SSE 04:45:14 10° SSE 04:45:40 10° SSE visible
07 Dec 2.8 06:22:19 10° SW 06:25:40 25° SSE 06:29:01 10° ESE visible
08 Dec 3.5 04:32:19 12° SSE 04:32:29 12° SSE 04:34:13 10° SE visible
08 Dec 2.6 06:09:29 10° SW 06:12:58 27° S 06:16:26 10° ESE visible
09 Dec 3.5 04:20:48 14° SE 04:20:48 14° SE 04:22:04 10° SE visible
09 Dec 2.4 05:56:41 10° SW 06:00:15 29° S 06:03:49 10° ESE visible
10 Dec 3.8 04:09:10 12° SE 04:09:10 12° SE 04:09:43 10° ESE visible
10 Dec 2.2 05:44:23 13° SW 05:47:32 31° S 05:51:10 10° ESE visible
11 Dec 2.1 05:32:39 19° SW 05:34:50 32° S 05:38:30 10° ESE visible
12 Dec 2.0 05:20:51 27° SW 05:22:07 33° S 05:25:48 10° ESE visible
13 Dec 1.9 05:08:59 32° SSW 05:09:24 33° S 05:13:05 10° ESE visible
